| time (UTC) | temp F | wind direction | speed knots | gust knots | rain 1hr in | rain 24hr in | rain mn in | humidity % | barometer mb |
| 20260504174550 | 63 | 0 | 0.0 | 6.1 | 0.01 | 0.03 | 0.01 | 82 | 1006.5 |
| 20260504173057 | 65 | 342 | 0.0 | 4.3 | 0.01 | 0.03 | 0.01 | 73 | 1006.9 |
| 20260504171558 | 66 | 0 | 1.7 | 5.2 | 0.00 | 0.02 | 0.00 | 69 | 1006.3 |
| 20260504150109 | 68 | 275 | 5.2 | 15.6 | 0.00 | 0.02 | 0.00 | 58 | 1007.8 |
| 20260504081555 | 59 | 258 | 0.0 | 1.7 | 0.00 | 0.02 | 0.00 | 82 | 1008.9 |
| 20260504080116 | 58 | 0 | 0.0 | 1.7 | 0.00 | 0.02 | 0.00 | 82 | 1009.0 |
| 20260504044553 | 60 | 0 | 0.0 | 3.5 | 0.01 | 0.01 | 0.01 | 74 | 1008.9 |
| 20260504043111 | 62 | 306 | 0.0 | 2.6 | 0.01 | 0.01 | 0.01 | 70 | 1008.4 |
| 20260504041553 | 65 | 0 | 1.7 | 8.7 | 0.00 | 0.00 | 0.00 | 62 | 1009.7 |
| 20260504040116 | 66 | 291 | 0.0 | 7.0 | 0.00 | 0.00 | 0.00 | 56 | 1009.3 |
| 20260504034559 | 66 | 296 | 0.9 | 4.3 | 0.00 | 0.00 | 0.00 | 55 | 1009.6 |
| 20260504033056 | 67 | 311 | 0.9 | 7.0 | 0.00 | 0.00 | 0.00 | 52 | 1009.8 |
| 20260504031556 | 67 | 319 | 1.7 | 6.1 | 0.00 | 0.00 | 0.00 | 52 | 1010.0 |
| 20260504030054 | 67 | 0 | 0.9 | 4.3 | 0.00 | 0.00 | 0.00 | 52 | 1010.0 |
| 20260504024551 | 68 | 0 | 0.0 | 6.1 | 0.00 | 0.00 | 0.00 | 50 | 1010.0 |
| 20260504023059 | 68 | 292 | 0.0 | 2.6 | 0.00 | 0.00 | 0.00 | 50 | 1010.1 |
| 20260504021555 | 69 | 291 | 0.9 | 3.5 | 0.00 | 0.00 | 0.00 | 48 | 1009.9 |
| 20260504020053 | 70 | 0 | 0.9 | 5.2 | 0.00 | 0.00 | 0.00 | 47 | 1009.8 |
| 20260504014604 | 70 | 256 | 1.7 | 8.7 | 0.00 | 0.00 | 0.00 | 46 | 1009.5 |
| 20260504013101 | 70 | 333 | 0.0 | 7.0 | 0.00 | 0.00 | 0.00 | 45 | 1009.4 |
| 20260504011557 | 71 | 306 | 0.9 | 7.8 | 0.00 | 0.00 | 0.00 | 45 | 1009.3 |
| 20260504010057 | 73 | 0 | 0.9 | 9.6 | 0.00 | 0.00 | 0.00 | 42 | 1009.3 |
| 20260504004554 | 73 | 308 | 2.6 | 7.0 | 0.00 | 0.00 | 0.00 | 40 | 1009.2 |
| 20260504003101 | 73 | 316 | 2.6 | 7.8 | 0.00 | 0.00 | 0.00 | 40 | 1009.3 |
| 20260504001609 | 74 | 355 | 3.5 | 7.8 | 0.00 | 0.00 | 0.00 | 39 | 1009.3 |
| 20260504000129 | 75 | 306 | 3.5 | 8.7 | 0.00 | 0.00 | 0.00 | 37 | 1009.3 |
| 20260503234552 | 75 | 303 | 4.3 | 9.6 | 0.00 | 0.00 | 0.00 | 36 | 1009.3 |
| 20260503233054 | 76 | 329 | 5.2 | 10.4 | 0.00 | 0.00 | 0.00 | 35 | 1009.6 |
| 20260503231550 | 76 | 355 | 7.0 | 13.0 | 0.00 | 0.00 | 0.00 | 35 | 1009.7 |
| 20260503230050 | 76 | 294 | 4.3 | 14.8 | 0.00 | 0.00 | 0.00 | 35 | 1009.7 |
| 20260503224549 | 76 | 324 | 4.3 | 11.3 | 0.00 | 0.00 | 0.00 | 37 | 1009.7 |
| 20260503223050 | 75 | 340 | 4.3 | 12.2 | 0.00 | 0.00 | 0.00 | 37 | 1010.0 |
| 20260503221557 | 75 | 321 | 4.3 | 9.6 | 0.00 | 0.00 | 0.00 | 39 | 1010.1 |
| 20260503220052 | 75 | 15 | 4.3 | 9.6 | 0.00 | 0.00 | 0.00 | 39 | 1010.2 |
| 20260503214552 | 74 | 319 | 6.1 | 16.5 | 0.00 | 0.00 | 0.00 | 37 | 1010.4 |
| 20260503213048 | 74 | 300 | 2.6 | 14.8 | 0.00 | 0.00 | 0.00 | 41 | 1010.5 |
| 20260503211552 | 73 | 338 | 4.3 | 17.4 | 0.00 | 0.00 | 0.00 | 39 | 1010.7 |
| 20260503210051 | 73 | 296 | 4.3 | 15.6 | 0.00 | 0.00 | 0.00 | 40 | 1010.6 |
| 20260503204550 | 73 | 175 | 4.3 | 13.0 | 0.00 | 0.00 | 0.00 | 41 | 1010.9 |
| 20260503203049 | 72 | 315 | 4.3 | 16.5 | 0.00 | 0.00 | 0.00 | 42 | 1011.5 |
| 20260503201551 | 71 | 263 | 2.6 | 16.5 | 0.00 | 0.00 | 0.00 | 44 | 1011.9 |
| 20260503200058 | 71 | 317 | 4.3 | 15.6 | 0.00 | 0.00 | 0.00 | 42 | 1012.2 |
| 20260503194553 | 70 | 306 | 6.1 | 12.2 | 0.00 | 0.00 | 0.00 | 39 | 1012.7 |
| 20260503193057 | 70 | 304 | 5.2 | 17.4 | 0.00 | 0.00 | 0.00 | 43 | 1013.0 |
| 20260503191603 | 69 | 329 | 6.1 | 19.1 | 0.00 | 0.00 | 0.00 | 43 | 1013.4 |
| 20260503190053 | 68 | 345 | 7.8 | 15.6 | 0.00 | 0.00 | 0.00 | 42 | 1013.7 |
| 20260503184551 | 67 | 313 | 3.5 | 16.5 | 0.00 | 0.00 | 0.00 | 46 | 1014.2 |
| 20260503183108 | 67 | 294 | 5.2 | 17.4 | 0.00 | 0.00 | 0.00 | 50 | 1014.6 |
| 20260503181618 | 66 | 317 | 4.3 | 16.5 | 0.00 | 0.00 | 0.00 | 47 | 1015.1 |